Location: Cisewo
(53.3833°N, 14.9000°E)
Time: 10:56:47
(UTC+00:00)

Cosmos 2315 Rocket - Pass Details

Date: 18 April 2021
Orbit: 967 x 1001 km, 82.9° (Epoch: 14 May)

Event Time Altitude Azimuth Distance (km) Brightness Sun altitude
Exits shadow 23:10:32 48° 231° (SW) 1,285 4.3 -25.4°
Maximum altitude 23:12:08 62° 285° (WNW) 1,109 4.2 -25.4°
Drops below altitude 10° 23:18:29 10° 6° (N) 2,780 7.4 -25.3°
Sets 23:21:04 0° 10° (N) 3,736 8.4 -25.3°
